{"data":{"norad_id":43016,"epoch":"2026-09-17T15:04:55.063776Z","epoch_age_seconds":262499,"freshness":"STALE","line1":"1 43016U 17073D   26260.62841509  .00017546  00000+0  43528-3 0  9990","line2":"2 43016  97.4452 144.0022 0097352 303.9900  55.2122 15.35579152480631","mean_motion":15.35579152,"eccentricity":0.0097352,"inclination_deg":97.4452,"raan_deg":144.0022,"arg_perigee_deg":303.99,"mean_anomaly_deg":55.2122,"bstar":0.00043528,"rev_number":48063,"period_min":93.775693563206,"perigee_km":392.63794393108,"apogee_km":525.76364573156,"semimajor_km":6837.3377948313,"source":"CELESTRAK","updated_at":"2026-09-20T09:00:48.032915Z"}}